Miscellaneous Local Product
Issued by NWS North Platte, NE

Home | Current Version | Previous Version | Text Only | Print | Product List | Glossary On
Versions: 1 2 3 4 5 6 7 8 9 10 11 12 13 14 15 16 17 18 19 20 21 22 23 24 25 26 27 28 29 30 31 32 33 34 35 36 37 38 39 40 41 42 43 44 45 46 47 48 49 50
000
AXUS43 KLBF 191510
MISLBF


WESTERN AND NORTH CENTRAL NEBRASKA HOURLY WEATHER ROUNDUP
NATIONAL WEATHER SERVICE NORTH PLATTE NE
1000 AM CDT FRI SEP 19 2014

***STATIONS NOT REPORTING VARIABLES SUCH AS SKY/WEATHER OR
PRESSURE ARE PROVIDED BY THE NEBRASKA DEPARTMENT OF
ROADS...RAWS...AND APRS NETWORKS...AND ARE NOT UNDER
NATIONAL WEATHER SERVICE QUALITY CONTROL***

...OBSERVATIONS IN AND NEAR THE EASTERN PANHANDLE OF NEBRASKA...

CITY           SKY/WX    TMP DP  RH WIND       PRES   REMARKS
PINE RIDGE     MOSUNNY   67  60  78 SW5       29.86R
CHADRON        MOSUNNY   70  56  61 S7        29.85F
ALLIANCE       SUNNY     66  57  72 W10       29.90R
SIDNEY         MOSUNNY   69  49  48 NW16      29.96R
WHITECLAY        N/A     69  58  67 CALM        N/A
RUSHVILLE        N/A     72  60  66 W7          N/A
CRESCENT LAKE    N/A     69  52  54 W10         N/A
LISCO            N/A     71  53  51 W15         N/A
BIG SPRINGS      N/A     57  55  95 N3          N/A
$$

...OBSERVATIONS IN NORTH CENTRAL NEBRASKA...

CITY           SKY/WX    TMP DP  RH WIND       PRES   REMARKS
VALENTINE      MOSUNNY   70  60  70 SW13      29.79R
THEDFORD       SUNNY     66  61  83 S9        29.86F
AINSWORTH      SUNNY     69  59  71 SW10      29.79F
O`NEILL        SUNNY     72  65  77 SW15      29.80S
ORD            SUNNY     69  62  78 SW10      29.85R
BROKEN BOW     SUNNY     70  62  76 SW10      29.87R
SPRINGVIEW       N/A     70  62  76 SW6         N/A
ROSE             N/A     72  68  88 S16         N/A
NEWPORT          N/A     73  64  74 S18         N/A
COMSTOCK         N/A     76  69  78 S12         N/A
CHAMBERS         N/A     72  64  76 S9G17       N/A
$$

...OBSERVATIONS IN SOUTHWEST NEBRASKA AND FAR NORTHEAST COLORADO...

CITY           SKY/WX    TMP DP  RH WIND       PRES   REMARKS
WRAY           FAIR      76  58  52 S12G18    29.92F
HOLYOKE        FAIR      70  55  60 SW8       29.92R
IMPERIAL       SUNNY     70  59  68 SW13      29.90S
OGALLALA       SUNNY     62  60  93 S5        29.91R
NORTH PLATTE   SUNNY     69  61  75 CALM      29.88R
MCCOOK         SUNNY     69  64  84 S5        29.90F
LEXINGTON      SUNNY     71  65  83 S12       29.88S
PAXTON           N/A     57  56  97 CALM        N/A
SUTHERLAND       N/A     64  60  86 W12         N/A
BRADY            N/A     67  62  85 CALM        N/A
GOTHENBURG       N/A     64  57  79 S5          N/A
CALLAWAY         N/A     62  62  99 S13         N/A
$$

...SOME WEATHER OBSERVATIONS FROM AROUND THE REGION...

CITY           SKY/WX    TMP DP  RH WIND       PRES   REMARKS
DENVER         MOSUNNY   74  37  26 SW13      30.01R
LARAMIE        SUNNY     61  40  45 S5        30.17S
CHEYENNE       SUNNY     69  42  37 NW16G24   30.06F
SCOTTSBLUFF    SUNNY     68  52  56 NW8       29.93F
RAPID CITY     CLOUDY    69  54  58 CALM      29.83R
PIERRE         CLOUDY    65  61  87 SW8       29.68R
WINNER         FAIR      74  63  68 W14       29.73R
SIOUX FALLS    CLOUDY    68  62  81 S20G30    29.76F
OMAHA          CLOUDY    66  61  84 S16       29.92F HAZE
GRAND ISLAND   SUNNY     72  63  73 S13G22    29.89S
KANSAS CITY    CLOUDY    64  63  96 S9        30.03S FOG
WICHITA        MOSUNNY   74  65  73 S10       30.00R
HAYS           SUNNY     72  61  68 SW13      29.97S
LIBERAL        SUNNY     72  63  73 SW16      30.03S
GOODLAND       SUNNY     72  60  66 SW16      29.96S
$$



USA.gov is the U.S. government's official web portal to all federal, state and local government web resources and services.